Location: Newark
(39.9267°N, 1.8017°W)
Time: 08:54:44
(UTC+00:00)

Envisat - Visible Passes

Search period start: 23 October 2019 00:00
Search period end: 02 November 2019 00:00
Orbit: 764 x 766 km, 98.1° (Epoch: 23 October)

Date Brightness Start Highest point End Pass type
(mag) Time Alt. Az. Time Alt. Az. Time Alt. Az.
23 Oct 4.8 18:58:36 10° SSW 19:03:07 32° W 19:07:41 10° NNW visible
24 Oct 3.2 18:21:11 10° S 18:26:14 74° WSW 18:31:20 10° NNW visible
25 Oct 3.2 17:44:41 10° SE 17:49:32 49° ENE 17:54:27 10° N visible
25 Oct 5.7 19:25:21 10° SW 19:28:49 18° W 19:32:19 10° NW visible
26 Oct 6.1 05:55:18 10° NE 05:58:43 18° E 06:02:08 10° SE visible
26 Oct 4.3 18:47:02 10° SSW 18:51:48 41° W 18:56:36 10° NNW visible
27 Oct 3.0 18:09:54 10° SSE 18:14:58 87° ENE 18:20:05 10° NNW visible
28 Oct 3.5 17:33:40 10° SE 17:38:20 39° ENE 17:43:03 10° N visible
28 Oct 5.3 19:13:26 10° SSW 19:17:27 23° W 19:21:30 10° NW visible
29 Oct 6.3 05:44:44 10° ENE 05:47:20 14° E 05:49:56 10° ESE visible
29 Oct 3.8 18:35:33 10° S 18:40:30 53° W 18:45:28 10° NNW visible
30 Oct 2.9 17:58:42 10° SSE 18:03:44 69° ENE 18:08:47 10° N visible
30 Oct 6.1 19:40:55 10° WSW 19:43:13 13° W 19:45:31 10° WNW visible
31 Oct 4.9 19:01:42 10° SSW 19:06:07 30° W 19:10:33 10° NW visible
01 Nov 6.7 05:34:54 10° ENE 05:35:56 11° E 05:36:59 10° E visible
01 Nov 3.4 18:24:10 10° S 18:29:12 68° WSW 18:34:17 10° NNW visible
